GFSFLT1_500_rhum_336.txt.gz
RH
8 8 8 9 12 13 13 16 18 19 19 18 13 11 9 7 6 5 4 3 3 3 4 4 6 13 27 32 14 8 8 10
10 9 8 9 13 16 18 20 19 18 17 14 10 8 7 6 5 4 4 4 4 4 4 13 25 31 37 27 15 16 21 22
10 9 10 13 18 17 17 17 16 16 13 9 7 6 5 4 4 4 4 4 5 6 10 25 34 36 38 25 33 38 36 29
9 11 14 16 17 16 16 15 15 13 9 7 6 4 4 4 4 4 5 7 18 28 35 52 44 37 50 54 40 26 31 40
10 12 17 17 16 16 14 12 11 9 7 5 4 4 4 4 5 6 15 39 40 14 29 46 54 61 50 35 31 42 50 61
11 13 18 16 15 13 10 8 8 5 4 4 4 4 4 6 18 55 67 24 20 45 65 73 46 45 40 47 63 65 63 53
11 13 13 12 10 8 8 6 4 4 4 4 4 5 11 19 21 73 25 20 37 67 72 44 56 62 65 65 61 34 8 5
11 10 9 8 7 6 5 4 4 4 4 4 12 50 57 54 67 28 28 56 72 72 49 62 61 58 38 12 5 5 5 6
7 7 6 6 5 4 5 4 4 4 7 37 59 44 71 66 37 46 68 89 66 61 66 62 42 10 6 7 7 7 6 6
6 6 6 6 6 5 4 6 12 20 39 62 86 90 76 68 67 88 93 51 53 67 61 29 7 7 8 8 7 7 8 8
18 17 14 8 5 6 27 59 63 79 77 86 96 92 86 91 96 66 51 86 79 64 26 9 9 9 9 9 10 10 10 10
25 10 6 7 17 42 63 72 84 75 91 100 100 100 100 78 50 67 87 84 63 31 11 10 11 11 11 11 11 11 10 8
7 18 13 15 53 73 71 67 83 84 81 88 93 92 73 60 78 84 77 58 30 11 11 13 13 13 13 12 11 10 8 6
16 29 60 69 77 72 67 65 66 67 70 71 75 74 70 61 66 73 54 21 10 12 14 15 15 14 13 11 10 8 6 5
52 72 74 66 61 55 57 60 64 68 70 69 64 60 52 55 72 53 14 10 14 15 16 16 15 13 11 10 8 7 6 5
62 61 51 46 47 53 60 65 73 78 77 72 63 55 59 66 42 9 11 15 17 18 18 16 14 12 10 9 7 6 5 4
51 41 42 49 51 57 65 70 74 77 77 76 70 65 66 30 8 13 16 18 20 20 18 15 13 11 9 8 6 5 3 3
38 41 46 52 56 57 60 66 69 69 70 68 69 59 10 10 14 18 19 22 22 20 16 14 12 10 8 6 5 3 3 4
41 49 52 50 47 50 57 62 63 62 63 67 43 8 11 14 17 20 22 24 22 19 16 13 11 9 7 6 4 3 9 23

GFSFLT1_500_rhum_339.txt.gz
RH
11 14 8 12 10 10 11 13 16 19 19 18 17 14 10 8 6 5 4 4 4 4 4 4 8 15 30 40 48 44 48 49
12 14 8 13 16 14 17 18 17 17 17 16 13 10 7 6 4 4 4 4 4 6 14 24 34 26 27 53 52 56 58 50
11 15 11 11 18 18 20 19 17 16 15 12 10 7 5 4 4 4 4 5 11 38 65 31 25 57 64 63 61 50 40 42
10 14 13 11 17 19 18 17 16 13 10 9 7 5 4 4 4 5 14 40 56 58 34 43 63 68 62 54 55 54 56 57
8 12 15 14 16 20 16 15 11 9 8 6 4 4 4 4 7 21 63 72 73 36 56 71 72 63 59 60 57 53 47 30
8 10 12 15 14 14 11 9 7 7 5 5 4 4 4 12 29 59 59 76 54 54 78 76 63 65 62 56 28 6 5 6
8 9 10 12 11 8 7 6 6 5 5 4 4 8 25 53 68 83 85 72 67 82 84 63 66 68 40 10 7 8 8 8
9 9 8 8 7 6 6 5 6 5 5 9 33 52 74 75 81 88 87 82 88 86 69 80 67 24 7 8 9 10 12 12
8 7 7 7 6 6 8 9 7 5 27 68 70 76 90 86 78 86 89 93 74 75 76 67 14 9 9 10 11 12 14 14
14 13 12 13 15 18 13 6 9 36 75 87 99 97 92 93 92 92 95 74 76 78 71 24 10 9 11 12 14 16 16 14
62 57 48 37 22 12 17 20 50 68 76 76 77 88 97 89 86 87 74 69 72 80 34 11 10 12 14 16 18 17 16 16
40 28 14 11 16 31 46 57 69 64 53 55 68 72 75 77 75 70 68 57 72 54 14 10 14 15 18 19 19 17 16 14
10 10 13 23 37 48 60 66 53 43 53 62 67 73 76 73 65 62 52 62 56 11 11 15 17 20 21 21 18 16 14 12
24 39 51 64 70 70 57 41 47 55 60 65 70 74 77 74 65 59 64 45 9 12 16 19 20 22 23 20 17 15 12 10
77 85 76 65 63 42 41 50 52 56 58 60 65 70 73 73 66 65 33 9 13 17 20 20 23 25 22 18 15 12 10 8
80 69 58 47 43 51 48 48 51 55 59 62 63 63 65 65 66 15 9 13 17 20 20 22 26 25 19 16 12 10 8 7
50 43 39 50 49 46 49 48 50 58 60 60 58 61 68 60 8 9 12 14 19 20 20 27 27 21 16 13 10 9 7 5
35 39 45 41 41 42 40 37 41 51 56 57 58 59 26 6 8 10 13 17 19 18 26 29 23 18 13 10 9 7 5 3
39 38 32 36 35 33 30 32 39 44 47 48 34 10 6 9 12 14 18 19 18 28 30 26 19 13 10 9 8 5 4 10

GFSFLT1_500_rhum_342.txt.gz
RH
13 18 17 15 15 19 18 20 21 22 21 19 18 16 12 9 7 5 4 4 4 5 29 61 64 58 34 33 50 60 61 52
15 16 17 18 16 15 19 21 20 20 18 16 14 11 9 7 5 4 4 4 6 31 65 73 64 47 59 64 62 60 60 60
12 14 15 15 15 14 18 21 20 18 16 13 10 8 6 5 5 4 4 14 34 63 72 70 62 66 64 62 62 60 57 53
10 11 13 13 14 16 16 19 18 15 13 9 7 6 5 5 4 6 27 55 66 82 80 75 74 72 66 59 57 54 43 14
8 8 10 12 12 15 16 14 13 11 8 6 5 5 5 6 20 50 73 73 73 87 85 79 78 72 67 62 52 18 7 8
10 7 9 10 10 11 12 10 8 6 6 6 6 5 18 59 64 70 82 83 89 84 91 87 74 71 71 65 24 9 9 11
27 16 12 10 9 8 7 7 6 6 8 8 6 38 76 83 89 95 97 96 92 98 90 74 73 77 75 40 11 10 12 13
29 22 13 8 8 8 8 9 12 15 11 8 40 66 74 74 76 84 84 82 88 81 73 69 76 80 40 9 10 11 11 12
34 17 13 14 18 23 28 30 22 9 8 29 70 69 51 45 56 62 67 70 73 70 65 62 71 30 8 9 10 12 11 14
59 52 46 42 48 46 31 11 17 48 69 75 70 48 46 54 58 63 67 70 69 64 57 63 32 6 8 11 14 13 14 17
55 53 38 42 38 15 14 29 41 49 64 64 49 53 56 59 61 64 68 70 66 60 61 38 7 10 13 16 14 13 17 22
69 54 17 10 12 20 37 62 70 62 46 50 56 58 63 67 69 72 72 69 65 63 36 8 12 14 18 16 13 20 27 23
16 19 19 23 31 39 54 65 53 47 50 44 47 54 61 62 64 69 69 67 64 16 10 12 14 17 16 14 26 28 24 18
19 25 42 61 75 70 68 44 47 40 37 40 43 45 46 47 52 57 62 60 9 9 12 13 17 16 18 30 29 24 18 12
24 39 83 81 57 41 41 43 36 35 32 31 36 38 38 40 48 52 34 7 9 11 13 15 15 21 31 30 24 17 11 8
60 77 59 38 38 43 35 33 31 27 29 34 36 36 32 33 26 12 6 9 11 13 15 14 22 32 31 24 16 11 8 6
65 46 33 43 34 30 30 27 24 22 25 31 35 36 29 16 8 6 9 12 13 14 13 22 33 33 26 17 11 7 6 5
36 37 45 34 32 31 28 22 18 22 28 37 42 38 26 14 8 7 9 10 12 13 20 31 35 30 20 12 8 6 6 5
35 40 33 29 29 26 20 14 16 20 24 30 40 36 27 14 10 7 9 12 13 17 26 33 33 24 16 10 7 7 6 3

GFSFLT1_500_rhum_345.txt.gz
RH
12 14 14 15 17 17 18 19 21 22 21 20 18 16 13 10 8 6 5 5 4 10 41 66 74 79 75 73 70 69 67 65
12 14 16 16 16 18 17 17 17 20 19 19 16 12 9 7 6 5 5 5 24 64 74 72 80 83 78 78 74 72 64 66
9 11 13 14 15 15 16 15 14 14 16 15 11 8 7 5 5 5 12 48 65 73 78 81 86 79 77 75 73 71 67 60
14 8 8 10 11 13 14 14 15 15 14 11 7 6 6 6 12 38 60 74 81 85 86 84 82 77 74 72 73 74 67 25
35 14 9 8 9 10 11 12 12 11 8 6 6 8 8 16 52 70 75 78 75 76 78 78 74 72 70 68 72 67 22 9
54 43 19 15 10 10 10 9 8 7 6 7 15 10 10 38 70 74 63 63 63 70 74 72 73 70 65 66 67 28 10 10
48 37 27 24 16 9 8 8 8 11 20 22 11 8 25 67 76 59 54 60 69 76 76 74 70 65 60 61 49 14 10 11
48 48 40 22 22 25 28 34 41 39 18 10 28 45 52 67 52 50 60 68 71 73 73 70 66 60 64 59 12 8 8 7
56 52 53 52 48 48 48 48 40 12 16 34 42 58 64 42 48 55 55 57 60 61 62 64 60 62 35 8 8 8 8 10
58 62 60 52 43 39 41 42 24 17 48 71 70 52 37 49 47 44 46 44 41 42 49 52 55 19 6 6 8 9 9 7
85 73 76 68 52 11 10 11 24 44 64 61 38 43 46 37 36 36 32 29 30 31 31 34 9 6 8 8 10 8 10 26
86 70 61 17 22 19 30 36 40 40 63 38 47 39 34 33 30 25 24 23 21 18 12 5 7 8 10 10 9 16 28 32
42 69 76 22 21 38 76 80 68 56 43 42 33 31 31 27 24 23 20 16 13 7 5 8 10 12 12 11 23 32 34 28
83 46 69 20 35 83 64 41 40 43 33 30 27 25 22 23 23 20 17 16 13 8 8 11 13 13 15 24 32 36 30 20
91 39 30 42 72 58 40 42 33 29 27 21 14 15 18 17 18 18 19 19 13 8 10 11 13 15 24 30 37 32 23 14
69 65 62 75 50 40 34 28 27 23 14 9 10 14 13 15 20 20 20 18 13 9 11 13 15 24 31 39 33 25 17 12
62 77 70 40 38 30 27 26 21 10 7 7 8 8 10 18 22 21 21 17 14 14 13 16 22 31 41 34 27 20 16 12
65 52 32 33 29 27 26 18 11 7 6 5 6 8 13 21 24 21 22 19 18 17 19 24 29 41 37 31 24 20 15 10
36 28 33 33 27 28 19 10 8 7 6 6 8 12 18 23 22 23 24 25 24 26 26 29 40 37 34 29 23 18 12 7